Wind_Speed
14 17 23 28 32 34 35 34 35 36 36 36 35 36 38 39 39 41 42 42 42 41 41 41 39 37 37 38 41 43 43 42 41 40 39 37 36 34 33 32 31 30 29 29 27 26 25 25 25 25 26 25 25 23 22 21 20 18 16 14 13 12 12 11 10 8 5 3 1 2 3 3 2 2 1 1 1 2 5 8 10 13 13 12 11
9 12 19 24 28 31 33 33 34 36 36 37 37 38 40 40 41 43 43 43 43 44 44 44 44 44 42 42 44 44 44 44 43 43 42 40 38 37 35 35 34 32 31 31 29 28 27 27 27 27 27 27 25 24 23 22 21 20 18 16 14 13 12 11 11 9 6 4 3 4 5 6 5 5 6 5 5 4 6 9 13 15 15 14 12
11 11 14 20 25 28 31 32 34 36 37 39 40 41 40 40 42 43 44 44 45 46 46 46 47 47 46 45 46 44 44 45 45 44 43 41 40 39 38 37 36 35 34 33 32 30 29 28 28 29 28 28 27 26 25 24 23 22 21 19 17 14 13 13 12 11 9 7 4 2 1 3 3 4 7 8 8 7 8 11 14 16 15 14 13
12 11 10 14 20 24 28 31 33 34 36 38 39 39 39 40 42 43 43 44 45 46 47 47 46 45 44 43 43 42 41 43 43 41 42 43 42 41 41 39 38 37 36 35 34 32 31 29 29 30 30 30 29 28 28 27 25 24 23 21 20 17 15 15 14 14 14 10 5 2 1 2 1 2 6 8 8 9 9 11 13 15 15 14 13
11 11 9 9 14 21 26 28 30 32 35 37 39 40 40 42 44 44 43 43 44 46 48 47 42 40 39 35 33 33 32 34 35 36 38 42 43 44 43 42 41 39 38 37 35 34 32 31 30 31 31 31 30 30 29 28 27 26 25 24 23 21 18 17 16 16 17 14 9 4 2 1 2 4 7 5 5 8 9 10 11 12 13 13 12
9 10 7 7 12 18 22 26 28 31 35 39 40 41 41 42 43 43 43 44 45 46 47 46 43 41 39 34 31 30 28 31 36 39 42 44 46 46 45 44 43 41 40 39 37 36 34 32 32 32 32 31 31 30 29 28 28 27 26 26 25 23 21 19 19 19 18 17 16 12 7 4 4 7 6 2 3 6 7 9 9 9 10 10 11
10 10 8 7 10 13 18 24 29 32 37 38 37 37 39 40 41 42 44 44 45 46 46 46 44 43 43 42 40 38 35 36 41 44 46 47 47 47 46 46 45 44 42 40 38 37 36 34 33 33 32 31 31 31 30 30 29 28 27 27 26 24 23 22 22 21 20 19 19 18 15 11 7 8 6 3 3 4 5 8 8 8 8 8 9
10 10 9 8 9 11 16 23 28 32 33 32 32 35 38 39 40 41 43 42 43 45 46 46 46 45 45 45 43 43 42 41 42 44 44 45 46 46 46 46 46 45 44 42 40 39 38 37 35 34 34 32 32 32 31 31 29 28 27 27 26 26 26 25 24 23 22 20 19 19 17 14 13 12 9 7 4 2 4 6 8 9 8 8 8
13 13 12 11 11 14 18 20 23 27 28 28 31 35 36 37 37 37 39 41 41 42 45 47 48 47 46 45 43 42 42 40 40 40 41 41 43 44 45 46 46 46 46 44 42 41 40 39 37 36 36 35 34 33 32 31 30 29 28 28 28 28 27 26 25 25 24 22 20 19 17 15 15 14 13 11 6 4 4 4 8 10 8 8 9
14 15 14 16 19 19 19 19 21 23 24 26 29 31 32 33 34 35 38 40 40 41 43 46 47 46 45 44 43 41 39 37 36 36 37 38 40 42 43 45 46 47 47 46 45 43 42 41 40 39 38 37 36 34 34 33 32 30 29 29 29 29 28 27 26 25 24 23 21 21 20 18 14 12 13 14 9 6 5 4 10 12 9 9 10
15 16 17 22 28 29 26 20 18 18 20 22 25 27 29 31 32 35 36 37 38 39 41 43 45 45 44 44 44 42 39 37 36 35 36 37 39 40 42 44 45 46 47 47 47 45 44 43 42 41 40 39 38 36 36 35 33 31 29 29 30 29 29 27 26 25 24 24 23 23 24 22 19 16 17 19 14 9 6 4 9 13 10 10 10
16 17 18 22 26 31 33 29 25 20 15 16 20 23 25 27 30 31 33 35 37 38 40 41 43 44 44 43 44 43 41 40 39 38 38 40 40 40 40 41 42 44 45 47 47 47 46 45 44 43 42 41 40 38 37 36 33 31 30 30 30 29 28 27 27 26 25 25 25 25 25 25 24 22 20 21 19 16 11 8 9 11 8 9 10
16 16 17 18 19 24 30 31 31 29 24 18 15 17 20 23 25 28 32 34 35 36 38 40 42 44 45 44 44 43 42 42 41 41 41 42 42 41 40 41 41 43 44 46 48 48 48 47 46 45 44 43 42 40 38 37 34 32 31 31 30 30 29 27 27 27 26 26 26 26 26 25 25 23 21 19 19 19 16 11 10 10 8 8 9
15 15 16 16 18 23 28 30 32 33 33 30 24 18 16 19 21 25 29 31 32 33 35 37 40 43 44 45 44 43 42 43 42 42 42 42 43 43 43 43 44 45 47 49 50 50 49 48 47 46 45 44 42 41 39 38 36 33 33 32 31 30 28 27 27 26 25 25 25 26 27 26 25 23 22 20 19 19 18 16 11 7 6 8 8
14 14 14 15 20 25 27 30 32 34 36 37 35 31 23 18 18 20 23 25 27 29 32 34 37 40 41 42 42 41 42 42 42 42 42 42 42 43 44 45 46 47 48 49 50 49 49 49 47 46 45 45 44 42 40 39 37 34 33 33 31 30 28 28 27 25 25 25 25 25 26 26 26 24 23 22 21 20 19 20 16 8 4 6 7
13 14 14 16 22 26 27 29 31 33 35 37 37 37 33 28 23 20 21 21 22 25 29 33 35 36 36 37 38 38 39 39 39 40 41 42 43 44 45 45 46 46 46 47 47 47 49 48 48 47 46 46 44 43 41 40 38 36 35 33 32 31 29 29 27 26 25 24 24 25 26 26 26 25 24 22 21 20 19 21 21 16 9 4 3
12 12 12 15 21 26 28 29 31 33 34 36 37 37 35 34 31 27 24 22 21 23 26 29 31 33 34 35 36 37 37 38 39 39 40 40 41 42 42 42 43 44 44 44 45 46 47 47 48 47 47 46 44 43 42 40 38 37 36 35 34 32 31 30 28 26 25 24 24 25 26 26 25 24 23 22 20 19 19 20 21 21 16 8 3
11 12 13 15 21 26 29 30 32 33 35 36 38 38 38 38 37 35 32 28 24 23 24 26 28 31 33 34 35 36 37 38 38 37 36 37 38 39 39 40 42 42 43 43 43 43 44 45 46 47 47 46 44 43 42 41 39 37 37 36 34 33 32 31 29 27 25 25 25 26 26 26 25 24 23 22 20 20 20 20 19 20 19 15 10
10 12 12 13 20 25 28 30 32 34 36 38 39 40 41 41 40 38 36 34 31 27 24 24 26 29 31 33 34 35 36 37 37 36 36 36 37 38 39 40 40 41 41 41 41 42 42 43 44 45 46 45 44 43 42 40 39 38 37 36 35 34 33 33 31 28 27 26 27 27 27 27 25 24 23 22 21 21 21 20 19 19 19 19 17
11 11 11 12 18 24 27 29 30 31 33 36 37 39 39 39 39 39 38 37 35 32 28 25 24 26 29 31 32 34 35 36 37 36 36 37 38 38 38 39 39 39 40 40 40 41 41 42 43 44 45 44 43 42 41 40 39 38 37 36 36 35 34 34 32 30 28 28 29 29 29 28 26 24 24 23 22 22 21 20 19 19 19 18 18
11 11 10 12 17 23 26 27 28 28 31 34 35 35 36 37 37 37 37 36 36 35 32 29 27 25 26 28 30 32 33 34 35 35 37 37 37 37 38 38 38 39 39 39 40 40 41 42 43 43 43 43 43 42 41 40 39 38 37 37 36 36 35 35 33 31 31 30 30 30 29 28 27 25 25 24 23 23 22 21 20 20 20 19 19
11 11 9 11 16 21 24 26 27 28 30 33 34 34 35 36 36 36 35 35 36 36 35 33 30 27 27 28 29 30 30 31 32 34 36 37 37 38 38 38 38 39 39 39 40 40 40 41 42 42 42 42 42 42 41 40 39 38 38 37 37 36 36 35 34 33 33 32 32 31 30 29 27 26 26 25 25 24 23 22 21 20 20 20 20
10 11 10 12 17 20 22 24 26 27 29 31 32 33 34 35 35 35 35 36 37 36 36 35 32 30 28 27 27 27 28 28 30 32 34 36 37 38 37 38 39 39 39 39 40 40 40 41 41 41 41 41 42 41 41 40 40 39 38 37 37 37 37 37 36 35 35 34 33 32 31 30 28 27 27 26 26 26 25 24 23 21 20 20 20
10 10 10 14 18 20 22 24 25 27 29 30 31 33 35 36 36 35 35 37 38 38 37 36 34 32 30 28 26 26 26 27 29 31 33 35 35 36 36 37 37 38 39 39 39 39 40 40 40 40 40 41 41 40 40 40 39 38 38 38 38 37 37 38 37 37 36 35 35 34 32 30 29 29 28 28 28 27 27 25 24 22 21 20 20
11 12 11 13 15 17 19 21 23 26 28 29 31 34 36 37 36 35 36 38 38 38 38 38 36 33 32 30 28 27 26 27 29 31 32 33 33 34 34 35 36 37 38 38 39 39 39 39 40 40 40 40 40 39 39 38 37 37 37 37 38 37 38 38 37 37 37 36 35 34 33 31 31 30 30 30 30 29 28 26 24 23 21 20 20
12 12 11 12 13 16 19 21 23 26 28 27 29 33 36 36 34 34 36 39 39 38 37 36 35 33 32 31 30 29 28 28 29 29 30 31 31 32 33 34 35 35 36 37 38 38 38 39 39 39 39 39 38 37 37 36 36 35 35 36 36 37 37 38 37 37 36 36 35 34 33 32 32 32 32 32 31 30 29 27 25 24 22 21 21
10 10 11 12 13 16 20 22 25 29 29 27 29 33 34 33 33 34 36 38 38 37 36 34 33 32 31 31 31 31 30 30 30 29 29 29 29 30 31 32 33 34 35 35 36 36 37 37 37 37 37 36 35 34 34 33 33 34 34 35 35 36 36 37 36 36 35 35 34 33 32 32 32 32 33 33 32 31 30 28 26 25 23 23 22
9 10 11 13 13 14 18 22 26 30 30 31 34 35 34 32 34 37 39 39 39 38 37 36 34 31 30 29 30 31 31 31 31 30 28 28 28 29 30 31 31 32 34 34 35 35 35 34 34 34 34 33 32 32 31 31 32 32 33 35 35 35 35 35 35 35 34 33 32 31 31 31 31 32 32 32 32 31 30 29 27 25 24 24 23
12 13 14 14 12 12 15 22 26 28 30 33 36 36 34 34 38 41 42 42 41 40 38 37 35 33 30 30 30 30 30 31 31 30 29 28 28 29 29 30 31 32 32 33 33 34 34 33 32 31 30 30 30 30 30 31 31 32 33 34 34 34 35 34 34 33 32 32 31 30 30 30 30 30 31 31 31 30 30 28 27 26 26 25 24
14 16 16 15 12 12 16 21 24 26 30 33 34 33 33 35 39 42 43 43 41 40 38 36 35 35 33 32 31 31 30 30 30 30 30 30 29 29 29 29 30 31 31 31 31 31 32 31 31 29 28 28 29 29 29 29 30 31 32 33 33 33 33 33 32 32 31 30 30 30 29 29 29 29 29 29 29 28 28 27 26 26 26 26 25
15 16 17 15 12 14 19 21 22 26 30 31 31 32 35 38 40 41 42 42 40 38 36 35 35 36 34 33 33 32 30 29 29 29 30 30 30 30 30 30 30 30 30 30 30 30 30 30 29 29 28 28 28 28 28 28 28 30 31 32 32 32 31 31 31 30 30 30 30 29 29 29 29 29 28 28 27 27 26 25 25 25 25 25 26
14 15 16 14 12 15 18 20 23 27 30 30 30 32 36 39 40 41 41 41 39 37 36 36 36 35 33 32 32 32 30 29 28 28 29 30 30 30 29 29 30 30 30 30 30 30 29 28 28 27 27 27 27 27 26 26 27 28 29 30 30 30 30 30 29 30 30 29 29 29 29 29 28 28 28 27 26 26 26 25 26 26 26 26 26
14 16 15 13 14 18 20 21 24 27 29 30 30 31 35 37 38 40 41 40 38 37 37 37 37 35 33 31 31 31 30 29 28 28 28 28 28 29 29 30 30 30 30 29 29 29 28 28 27 27 26 26 26 25 25 25 25 24 25 28 28 28 29 29 29 29 29 29 29 29 28 28 28 27 27 26 26 26 26 26 27 27 27 27 26
14 14 13 14 19 24 25 24 26 28 30 31 31 33 36 37 37 39 40 39 38 37 36 35 36 35 32 31 31 30 29 28 28 27 27 27 27 28 29 29 29 29 29 29 29 28 28 28 27 27 26 26 25 25 24 24 23 21 22 25 27 27 28 28 28 29 28 28 28 28 28 28 27 27 27 26 26 26 26 27 28 29 29 28 27
13 13 14 17 22 25 26 25 26 29 30 31 32 34 36 36 36 37 37 36 36 36 35 34 34 33 32 31 31 30 29 28 27 26 26 26 27 27 27 28 28 28 29 29 29 29 28 28 27 26 26 25 25 24 23 22 22 21 21 23 25 26 27 28 28 28 28 28 27 27 27 27 27 27 27 26 26 27 27 29 29 30 30 29 29
13 15 17 20 24 25 26 25 27 29 30 31 34 34 33 33 34 35 35 34 33 34 34 33 33 32 32 31 31 30 29 27 25 24 25 25 26 27 27 27 27 27 28 28 27 27 27 27 26 26 25 25 24 23 23 21 21 21 22 23 24 26 26 27 28 28 27 27 26 26 26 26 26 26 26 25 26 27 28 30 30 30 30 30 31
19 21 23 25 26 27 26 27 28 29 28 31 34 33 30 30 31 31 31 32 33 33 32 32 34 33 33 33 32 31 29 26 24 23 24 25 26 26 27 26 26 26 26 26 27 26 26 26 26 25 25 24 24 23 22 20 20 20 21 22 23 25 27 27 28 28 27 26 25 25 25 25 25 25 24 24 25 26 28 30 30 29 29 30 31
22 24 25 26 28 27 27 29 29 28 28 31 33 30 27 28 28 27 27 29 30 30 30 33 36 35 34 34 33 31 29 26 24 23 24 25 25 25 25 26 26 26 26 26 26 25 25 25 25 25 25 24 24 23 22 20 20 21 22 22 20 22 24 25 25 26 27 26 25 25 24 25 24 23 24 24 23 24 27 28 28 28 28 29 30
24 25 25 27 28 27 27 28 27 26 29 31 29 26 25 26 27 26 26 26 27 28 30 34 37 36 35 34 33 31 28 25 24 24 24 24 24 23 23 24 25 25 24 24 24 24 23 24 24 24 24 24 23 23 22 21 20 20 22 22 19 18 20 22 22 22 23 23 24 24 24 24 24 24 24 24 24 24 26 27 26 26 28 29 28
26 26 26 27 27 26 25 25 23 25 29 29 26 24 24 25 25 25 24 25 27 29 31 33 34 35 35 34 32 31 27 24 23 23 22 22 22 21 22 22 23 22 22 21 22 22 22 23 23 23 24 23 23 23 22 22 20 20 21 21 20 18 18 19 20 20 21 22 22 23 23 23 23 24 24 24 24 25 27 27 26 26 27 26 26
29 29 26 26 26 25 24 22 23 25 28 27 24 24 24 24 23 22 23 26 29 31 32 32 32 32 32 32 31 29 25 23 21 20 19 19 20 20 21 21 22 21 20 20 21 21 21 21 22 22 22 22 22 22 22 22 20 20 20 20 21 21 19 19 19 20 21 22 23 24 25 24 24 24 24 24 24 25 25 27 28 28 28 26 25
31 28 24 24 25 25 23 21 21 23 25 25 24 24 24 23 22 23 25 27 28 30 31 31 31 30 29 29 28 25 22 19 18 16 16 16 17 18 19 20 20 20 20 19 20 20 19 19 19 20 21 22 21 21 22 22 21 19 19 20 20 20 19 20 20 21 21 22 24 25 26 27 26 24 24 24 24 24 25 26 26 27 26 26 26
29 26 23 24 24 24 22 21 20 22 24 24 24 24 23 22 22 25 27 27 28 29 29 29 28 27 27 26 25 22 19 16 14 13 13 14 15 16 17 18 18 19 18 18 18 18 17 17 17 18 19 20 21 21 22 23 22 19 17 19 20 19 18 19 22 22 22 22 23 24 27 28 26 24 23 24 24 24 25 25 25 24 24 23 23
26 25 25 26 24 21 21 20 21 22 23 24 23 23 22 21 23 26 26 26 27 28 28 27 27 26 25 24 22 19 16 13 11 11 11 12 13 14 15 16 17 17 16 16 16 16 16 16 16 16 18 19 20 21 22 23 23 20 17 17 19 19 19 19 21 23 23 23 23 24 26 27 25 23 23 23 23 24 24 24 24 23 23 23 23
26 27 27 26 23 20 18 18 20 23 24 23 22 21 21 23 25 26 25 25 26 26 26 26 26 25 24 22 19 16 13 11 9 9 10 11 12 13 13 14 14 15 15 14 14 15 16 16 15 16 18 19 21 22 22 22 23 22 19 17 17 18 18 19 19 20 21 23 23 24 24 23 22 22 22 22 22 23 23 22 22 21 21 21 23
27 27 27 26 23 18 16 17 20 23 24 23 21 20 21 23 26 25 24 23 23 24 24 24 23 23 23 21 18 15 13 11 9 8 9 10 11 12 12 13 13 14 14 14 14 15 15 15 16 17 19 20 20 21 21 21 21 22 21 20 19 19 18 18 18 18 17 18 18 18 19 19 19 20 21 21 22 23 22 23 22 20 19 18 19
25 25 28 27 20 15 14 17 20 23 23 22 22 22 22 23 24 23 22 22 22 22 22 22 21 22 22 19 17 15 13 11 9 8 8 9 10 11 12 13 14 14 15 14 14 15 15 16 16 18 18 18 17 18 19 20 21 22 22 22 21 21 21 22 23 23 22 22 21 19 19 19 19 19 19 19 19 18 19 20 22 21 21 20 19
23 25 26 21 15 14 17 19 21 23 24 22 22 23 23 22 22 22 21 21 21 21 20 21 21 21 20 18 16 15 13 12 10 9 9 9 10 10 12 13 14 15 15 15 15 16 17 18 19 19 18 16 17 19 20 21 22 22 21 20 20 20 21 23 24 25 25 26 25 24 22 22 22 22 22 21 20 19 19 20 21 22 22 22 22
25 25 22 17 16 18 20 20 23 25 23 21 22 23 23 21 21 21 19 19 20 20 19 20 20 19 19 18 16 15 14 13 12 11 10 10 10 11 12 13 14 14 15 15 16 17 19 20 20 20 18 17 18 20 21 20 20 19 17 17 18 18 19 20 21 21 22 22 23 24 24 25 25 26 26 26 26 26 26 26 26 26 27 27 27
26 26 22 20 20 21 22 24 26 25 22 20 22 23 22 21 21 20 19 19 19 19 18 18 18 18 18 17 16 15 14 13 12 12 11 11 11 11 11 12 12 13 14 14 16 17 17 17 18 19 19 19 19 19 18 16 15 14 14 14 14 14 14 14 14 15 17 18 19 21 23 25 25 25 25 26 27 28 28 29 30 30 30 30 29
26 25 24 23 22 23 25 27 26 24 21 21 22 22 22 21 20 20 19 18 18 17 16 16 17 17 17 16 15 15 14 13 12 12 11 11 11 11 11 10 10 12 13 13 14 15 15 15 16 16 16 16 16 16 15 14 14 15 15 14 12 11 11 10 11 13 15 16 18 19 20 22 23 23 24 25 26 26 26 26 27 27 28 27 27
Wind_Direction
241 230 223 220 219 218 217 216 216 216 216 215 212 210 210 209 208 208 208 208 207 205 205 205 204 205 206 207 209 210 211 211 212 214 215 217 217 216 218 218 218 216 215 215 216 216 216 215 214 212 212 213 214 216 216 217 217 218 217 216 217 218 216 220 225 225 225 227 132 55 33 40 49 37 24 39 63 183 189 191 188 183 180 176 176
245 230 223 219 219 218 217 215 214 214 214 213 212 212 212 210 209 209 209 208 207 207 206 206 206 207 208 209 211 212 212 212 214 215 217 218 218 218 220 220 220 218 217 218 218 218 216 216 216 214 213 214 216 218 218 219 218 218 215 213 215 219 222 223 224 221 208 190 152 98 75 87 100 90 82 86 91 114 152 168 174 174 174 172 174
242 232 221 217 217 216 216 215 215 214 213 214 214 214 213 211 210 210 210 208 209 209 208 208 210 211 212 213 213 213 214 216 218 219 219 219 219 220 221 221 221 220 219 219 219 219 219 218 217 216 216 215 215 215 216 217 216 216 217 216 215 213 219 221 222 218 196 169 140 120 107 109 115 101 91 91 100 117 139 155 165 168 168 169 173
246 241 226 218 217 215 215 215 215 215 215 215 214 214 213 212 212 211 210 210 210 209 210 211 212 212 212 215 215 213 215 217 217 218 218 219 219 220 221 222 222 221 221 220 220 220 221 221 219 217 217 217 217 216 215 215 215 216 217 219 218 211 210 213 215 213 202 186 147 108 106 111 217 184 115 99 107 119 128 142 155 162 164 166 172
252 248 232 216 217 217 217 216 215 215 216 216 215 213 213 213 213 212 211 211 211 210 211 211 210 209 209 210 211 211 213 213 212 215 217 218 219 220 220 221 222 222 222 221 221 221 222 222 221 219 218 218 218 219 218 217 217 219 219 220 221 218 212 208 207 207 209 208 193 160 114 111 232 175 135 118 129 127 126 137 146 155 162 167 171
275 271 254 225 221 221 221 219 217 217 218 219 217 216 215 215 214 213 211 211 211 211 210 209 207 206 204 203 202 203 207 209 210 213 215 217 219 220 220 220 221 222 222 223 222 222 223 222 221 220 220 219 219 220 221 220 220 220 222 222 224 223 217 208 203 203 206 211 210 211 218 222 186 154 141 130 149 139 131 139 146 152 161 169 171
308 299 289 265 240 227 223 220 218 219 222 221 220 219 218 217 216 214 213 212 212 211 210 207 206 206 206 205 205 204 206 210 213 215 216 218 219 219 220 220 220 221 222 223 223 224 224 223 223 222 222 222 221 222 222 222 222 222 223 225 224 222 217 210 205 201 200 205 212 218 225 226 198 171 167 148 146 168 161 152 152 156 161 169 173
324 312 307 293 268 251 239 229 225 224 225 223 221 221 220 219 218 216 214 213 212 211 210 208 207 207 207 208 209 210 211 213 215 216 217 218 218 218 219 219 220 221 222 223 223 224 224 224 224 223 223 223 223 223 224 223 222 222 224 225 223 221 219 216 211 204 202 203 205 210 218 221 211 202 200 183 149 153 181 172 164 166 171 177 179
343 334 328 317 299 278 263 252 243 236 232 227 223 223 222 221 219 217 216 215 214 212 210 210 209 209 209 209 211 213 215 216 217 216 215 216 217 218 219 219 219 220 221 223 223 224 224 224 225 224 224 224 224 224 225 224 223 223 223 221 220 220 220 221 217 212 210 207 203 202 204 205 207 211 214 207 187 163 182 186 174 173 180 191 194
358 354 350 342 333 316 296 277 262 251 242 235 229 226 223 222 220 218 218 216 215 214 212 212 211 211 211 211 212 214 215 216 217 217 215 215 216 217 218 219 219 219 220 222 223 223 224 225 225 225 225 225 225 225 225 224 223 224 225 223 220 220 219 220 221 220 218 215 211 205 198 191 192 200 203 203 199 190 195 192 184 185 187 195 202
3 5 5 360 357 353 344 324 295 276 258 246 238 232 227 224 221 220 220 217 216 215 214 214 213 213 213 214 215 215 215 214 214 215 214 214 215 216 217 219 219 220 220 221 222 222 223 224 225 226 226 225 225 225 225 223 223 224 226 224 222 221 220 220 221 222 220 218 218 215 209 204 201 202 200 197 194 190 186 187 194 196 201 204 206
8 11 9 7 7 7 4 355 344 330 300 267 250 241 234 230 226 224 223 220 218 217 216 216 215 215 216 217 218 218 216 215 215 215 214 214 215 216 217 218 219 220 220 220 221 221 222 224 225 225 225 225 225 226 225 224 224 225 225 223 221 221 221 220 219 220 219 217 218 219 220 219 217 216 213 208 206 204 199 195 193 193 206 218 212
12 13 11 11 10 9 8 5 2 358 348 328 296 265 248 239 233 230 228 225 222 220 219 218 218 218 219 219 221 221 220 219 218 218 217 217 217 216 216 216 217 219 219 220 221 222 222 222 223 223 224 225 225 225 225 225 225 226 225 222 221 220 220 220 220 221 222 222 222 221 221 222 222 223 222 217 215 212 207 201 191 187 197 207 205
13 12 12 13 10 9 10 10 10 7 4 0 349 325 287 260 247 240 237 234 229 227 225 223 223 223 223 223 223 223 222 222 222 222 221 220 219 217 217 217 218 219 220 222 223 223 223 223 224 225 225 225 225 225 225 224 225 226 225 223 222 222 221 221 222 223 225 226 225 222 221 222 222 222 221 219 215 211 208 202 189 178 194 197 201
9 10 12 12 9 9 10 13 14 11 10 10 7 0 344 313 283 263 254 247 240 236 232 229 229 228 228 227 227 226 226 225 225 225 224 223 221 220 220 220 220 222 223 225 225 223 223 224 224 225 225 224 224 224 223 223 224 225 225 223 223 223 222 221 222 224 225 225 224 223 222 221 221 220 221 222 221 220 219 214 200 180 182 203 204
7 7 8 9 10 10 11 13 13 13 13 12 11 9 3 352 334 307 285 270 259 249 242 237 235 234 233 232 231 231 230 230 229 228 227 226 224 223 223 222 223 224 225 225 225 224 224 224 223 224 224 223 223 223 222 222 222 223 222 221 222 222 221 221 222 223 225 225 223 222 221 220 221 222 222 224 225 227 228 222 211 200 192 196 205
7 5 5 7 10 10 10 11 11 11 11 11 11 11 10 6 358 344 325 304 285 270 258 249 243 240 239 237 236 235 234 234 233 232 231 229 228 227 225 225 225 225 225 226 226 225 225 224 223 222 222 222 222 221 222 221 222 222 220 220 220 220 220 221 222 223 224 224 222 221 220 221 221 222 223 225 226 226 223 220 217 211 205 195 180
4 5 6 8 11 10 8 8 9 10 9 9 9 9 10 10 7 1 350 336 317 296 278 266 256 249 246 242 241 239 237 237 237 237 236 234 232 230 229 228 227 227 227 227 227 226 225 224 222 220 220 220 220 220 220 221 221 221 220 221 221 220 219 220 221 222 222 221 219 219 220 221 221 221 223 226 226 224 220 216 218 219 216 210 198
4 7 7 7 11 9 6 5 6 9 9 7 6 6 7 7 6 5 359 353 344 327 305 284 270 261 255 250 247 244 242 241 241 240 240 238 237 234 232 231 230 229 228 227 227 226 225 223 221 219 218 218 219 219 219 219 220 219 219 219 220 220 219 218 219 219 220 219 217 217 218 219 220 222 223 225 224 221 220 218 218 218 217 217 211
2 5 5 5 9 7 5 4 4 7 7 6 6 4 4 3 2 2 360 357 353 345 331 312 292 277 266 259 254 251 248 246 244 242 241 241 240 238 235 234 232 231 229 228 227 226 225 223 220 218 217 216 217 217 217 218 218 218 219 219 219 218 217 218 217 216 217 217 216 216 217 218 220 221 221 221 220 219 219 218 218 216 213 217 216
358 0 359 2 6 4 3 2 3 5 6 5 5 3 1 360 358 357 356 355 353 349 343 332 317 300 283 272 263 257 253 250 247 245 243 243 242 240 238 236 234 232 231 228 228 227 225 223 220 217 216 216 216 216 216 217 217 217 218 219 219 216 215 216 215 214 214 214 215 215 217 219 220 221 220 219 217 216 216 214 214 214 213 215 216
353 354 354 0 3 1 360 0 2 4 4 3 2 0 359 356 354 353 351 351 350 349 347 341 331 317 301 287 275 266 259 255 251 248 245 244 243 241 239 237 235 233 232 230 229 227 224 222 219 217 216 216 216 216 215 216 216 216 217 217 217 215 214 213 213 212 212 211 212 214 216 218 219 221 220 219 218 216 214 213 212 213 216 216 216
349 348 350 357 358 356 356 358 1 2 0 360 359 358 356 352 351 350 348 348 347 346 346 344 337 326 313 299 287 277 268 261 256 252 249 246 244 242 240 237 235 234 232 230 229 226 223 221 219 218 217 216 215 214 215 215 216 216 216 216 216 215 213 213 211 211 210 210 210 212 214 216 217 218 219 219 219 218 216 216 216 217 219 218 217
347 344 348 354 353 354 356 358 359 358 356 355 355 354 352 350 348 347 346 346 345 343 343 342 338 330 321 309 298 288 279 269 263 257 253 250 247 244 241 238 235 233 231 229 227 225 222 219 217 216 215 213 212 212 214 216 217 217 217 216 216 215 214 214 213 212 210 210 210 211 213 216 217 218 218 217 217 217 217 218 219 220 221 221 218
346 343 347 351 351 352 355 355 355 354 352 351 351 350 348 346 345 345 344 343 342 341 339 337 335 331 325 317 309 299 288 278 270 264 258 254 249 245 242 238 235 232 230 227 224 221 219 217 215 214 212 211 212 213 214 215 216 217 218 218 217 216 215 215 214 213 212 212 212 213 214 216 218 218 217 216 216 216 217 218 219 221 220 220 219
343 343 345 346 347 348 350 351 352 351 349 348 348 346 344 342 342 343 342 339 338 337 335 333 330 328 325 320 314 305 295 286 277 270 263 258 252 247 242 238 234 231 228 225 222 219 216 215 214 213 212 212 213 214 215 216 216 217 217 217 218 216 215 215 215 214 214 214 215 216 217 218 220 220 218 217 217 216 217 217 219 221 221 220 220
337 340 343 342 343 344 347 349 349 347 346 346 345 342 340 338 339 339 338 337 335 332 331 329 326 324 322 319 314 308 299 291 283 276 268 260 254 248 243 239 235 230 227 223 220 217 215 213 213 212 212 213 213 214 215 216 216 216 216 216 216 215 215 215 215 215 215 216 217 218 219 221 223 224 223 221 218 217 218 220 222 223 222 220 220
335 340 341 339 339 341 345 347 346 344 344 343 341 339 337 336 336 336 335 334 332 330 328 326 325 322 318 316 312 306 299 293 286 280 271 262 256 250 244 239 234 229 226 223 219 216 213 212 212 212 212 212 213 214 215 215 216 216 216 216 215 214 213 213 214 215 215 216 218 219 222 225 227 228 227 225 223 221 220 221 223 224 223 222 222
338 339 339 336 334 337 344 345 343 342 343 341 338 336 336 335 334 334 333 331 330 328 325 324 323 320 316 313 310 304 297 291 284 278 271 263 257 250 244 238 233 228 225 222 218 215 212 210 209 210 211 212 213 215 216 216 216 215 214 214 214 213 213 212 212 213 214 216 219 221 225 227 229 230 229 228 227 227 226 225 224 223 223 223 223
339 336 334 331 330 339 344 342 341 342 341 338 335 334 334 333 332 331 330 329 328 325 322 320 319 317 314 311 309 304 295 286 279 273 268 263 256 249 243 236 231 227 223 219 216 213 212 210 209 209 210 211 213 215 217 217 217 216 215 213 212 212 212 213 213 212 214 217 220 223 226 228 229 229 228 227 228 230 232 233 232 230 228 226 225
335 332 328 326 335 344 342 339 339 339 338 335 332 331 330 329 329 329 328 327 325 322 318 316 315 314 313 310 308 305 296 283 274 268 263 259 254 248 241 235 229 224 220 217 214 212 211 210 210 209 209 210 212 213 214 214 215 216 215 213 212 212 212 214 216 216 217 219 220 223 224 225 225 225 225 226 228 230 233 235 237 237 236 234 231
327 327 326 330 342 341 336 333 333 334 333 333 331 328 327 327 328 327 326 325 323 320 317 315 314 313 311 308 307 305 297 284 273 265 259 254 249 243 237 231 226 222 219 216 213 211 210 208 208 208 208 209 210 211 210 210 211 213 215 215 214 214 215 217 219 221 222 222 221 221 221 221 222 222 223 225 226 229 232 234 236 238 239 240 239
327 326 328 335 337 331 329 329 328 329 330 329 328 325 323 323 325 325 324 323 321 319 316 315 314 313 311 309 308 305 298 286 275 266 259 251 244 237 232 228 224 221 217 213 211 209 207 206 206 206 207 208 209 209 208 208 209 210 214 218 219 220 221 222 222 222 221 221 220 219 218 219 220 221 222 223 224 227 230 233 236 238 239 240 240
322 322 326 331 330 327 325 325 325 326 327 325 324 322 319 319 322 323 322 321 320 319 317 315 315 314 313 312 310 307 299 289 277 267 257 248 241 236 231 227 222 218 214 211 209 208 206 205 206 206 207 209 210 209 208 207 206 205 210 219 223 223 224 224 223 222 220 219 219 218 219 220 220 221 221 223 225 228 230 233 235 236 237 239 240
312 317 320 322 325 324 322 320 321 323 324 322 321 319 317 317 321 322 321 320 320 319 318 316 316 316 316 315 313 310 302 292 278 265 254 245 240 235 230 225 221 217 214 212 209 207 205 204 205 206 208 210 212 212 209 206 205 204 206 215 220 221 221 222 222 221 220 219 220 221 223 224 224 225 226 227 229 231 233 235 236 236 238 240 241
307 310 311 314 317 317 315 315 317 319 319 319 319 317 314 315 319 321 320 320 320 319 318 318 318 318 318 317 315 311 304 292 278 261 249 241 236 232 228 224 220 216 214 211 208 206 205 204 205 206 208 210 212 212 208 204 205 206 208 214 217 213 215 219 220 220 221 221 222 224 225 227 228 229 229 231 234 237 237 237 238 238 240 241 243
300 301 302 306 308 309 310 311 313 314 316 318 318 315 313 315 318 319 318 319 319 317 317 318 318 318 318 317 316 312 304 292 275 257 245 239 234 230 226 221 217 213 211 209 207 206 206 206 206 206 208 210 211 210 206 203 206 208 210 217 217 209 208 213 216 218 219 220 223 226 227 229 230 231 232 234 236 239 240 240 240 240 242 243 245
295 296 298 302 304 305 307 310 311 311 314 319 317 314 314 316 317 316 315 315 315 315 316 317 317 317 317 317 316 313 305 291 274 257 246 240 233 228 224 219 216 213 211 209 207 206 206 207 208 209 210 212 213 211 208 207 211 211 211 217 217 206 205 209 210 214 216 217 221 226 228 230 231 232 235 236 233 234 238 240 241 242 243 244 247
292 292 294 298 301 302 304 307 307 308 315 319 317 313 315 315 314 314 313 311 311 312 315 316 316 317 318 318 318 315 306 292 275 260 249 240 232 227 223 218 216 214 212 210 207 205 205 206 209 212 214 215 217 217 214 211 212 213 212 216 217 206 201 205 207 210 214 217 221 226 228 231 234 237 238 236 231 229 233 236 238 239 240 242 248
293 291 292 295 297 298 301 302 302 307 314 317 314 313 314 312 311 310 308 309 311 313 314 315 315 317 319 319 320 317 308 294 277 263 251 240 232 226 221 217 214 212 212 210 207 206 206 207 210 213 215 218 220 222 220 215 212 213 213 216 221 217 208 205 205 208 212 216 222 227 229 231 234 236 236 233 232 231 232 234 234 233 235 241 248
294 293 292 293 293 293 293 294 297 307 313 313 312 312 311 309 308 306 304 308 312 313 314 316 316 317 319 321 321 318 310 297 281 264 250 238 230 224 220 215 211 209 208 207 207 207 208 210 213 215 218 221 224 225 224 216 212 214 216 217 223 224 219 213 211 211 213 217 222 227 230 231 230 232 233 233 234 235 235 237 236 235 238 243 247
297 294 292 291 291 291 289 288 296 307 311 311 311 309 307 307 306 304 306 310 312 313 315 317 317 318 320 321 321 317 309 297 281 263 247 234 226 221 218 214 210 206 205 205 206 207 208 211 215 218 221 223 224 226 226 220 215 216 220 222 226 227 224 220 218 216 217 221 225 230 235 236 234 233 236 238 239 240 241 242 242 241 242 242 241
298 296 294 291 289 288 287 289 299 307 309 310 310 306 304 305 304 306 310 312 313 314 315 316 318 319 321 321 320 317 309 295 279 261 242 228 221 217 214 211 208 205 204 203 204 207 207 210 214 217 221 223 224 225 226 224 220 219 222 226 228 228 225 222 221 221 222 223 225 230 236 240 239 237 238 240 241 242 244 245 246 247 246 245 245
300 298 297 295 291 285 285 291 301 308 309 310 308 303 301 302 304 309 313 313 314 316 316 316 318 319 321 322 320 316 308 294 278 259 238 224 217 212 209 208 207 205 203 202 204 206 206 206 210 215 219 224 226 227 227 227 225 223 222 226 229 228 225 222 222 223 225 228 230 233 237 241 241 240 241 242 242 243 243 245 246 248 249 249 250
302 299 299 299 294 287 286 293 304 309 309 308 307 301 298 301 307 311 313 314 316 317 315 316 318 320 322 322 320 315 307 294 279 258 237 225 217 210 207 207 207 206 205 204 205 206 207 208 210 215 221 225 226 226 226 227 229 228 226 226 229 232 231 230 229 227 225 227 232 236 237 238 239 241 242 243 243 243 244 245 248 249 247 244 243
302 300 303 302 295 288 290 299 307 310 308 307 306 302 298 302 309 313 314 315 317 315 313 314 317 320 322 322 319 314 306 295 282 259 242 233 225 218 213 210 210 210 211 211 210 210 211 212 214 218 223 226 226 227 227 229 232 234 233 230 229 230 232 232 233 232 227 225 227 231 234 235 238 240 241 241 242 242 242 243 245 248 247 242 238
303 308 310 305 297 295 302 304 307 310 308 306 306 306 304 307 312 315 316 318 318 316 312 312 316 319 321 320 317 312 305 297 287 267 251 244 235 228 223 219 217 216 215 215 216 215 213 214 219 224 227 227 229 231 233 234 235 237 239 238 235 234 233 232 232 233 233 232 231 232 233 237 240 240 238 239 239 240 239 237 238 241 244 245 245
316 321 317 308 300 302 306 305 307 310 309 306 307 309 310 312 315 318 319 319 318 316 313 313 316 318 319 317 314 308 303 297 290 279 266 257 249 242 236 234 234 231 227 224 222 220 222 224 226 228 229 228 231 234 237 240 241 242 244 246 246 242 237 235 236 237 237 238 238 237 235 236 237 239 239 239 241 242 244 244 243 244 247 250 254
327 325 318 308 302 305 306 307 310 311 309 307 310 312 313 316 319 322 323 319 316 316 315 313 316 318 318 317 313 308 303 297 292 288 279 269 263 258 254 253 253 249 246 244 239 236 237 238 237 235 231 227 230 239 247 252 253 254 253 251 248 244 241 240 240 240 240 238 236 235 235 234 236 240 242 244 246 248 250 252 254 254 256 258 260
326 323 316 308 306 309 310 310 311 311 310 311 313 314 316 321 323 325 324 320 317 318 316 313 315 317 318 317 314 309 304 299 293 290 285 279 274 267 262 264 264 260 256 253 250 250 252 250 247 246 244 242 246 256 264 263 256 251 251 248 244 242 241 237 233 233 234 232 229 228 231 232 234 238 240 243 246 249 251 253 255 255 256 258 259
326 323 317 312 312 313 313 311 311 311 312 314 315 316 320 325 326 326 325 322 320 320 316 313 314 315 316 317 313 307 304 300 294 290 287 284 283 277 268 263 264 270 270 260 250 250 254 254 253 256 258 258 261 265 263 255 246 242 242 244 244 239 230 221 214 214 217 220 222 223 226 230 232 233 236 240 243 245 248 250 252 253 254 254 255
Height
751 756 757 758 760 761 764 766 768 770 772 774 776 778 780 783 785 788 790 793 795 797 800 802 804 807 809 811 812 814 816 819 821 823 824 826 828 830 831 833 835 837 839 840 842 844 845 847 848 850 851 852 853 855 856 858 859 861 862 863 864 865 866 867 868 869 870 871 873 873 873 874 874 874 874 874 874 874 875 876 876 877 878 879 880
750 753 753 755 757 758 760 762 763 764 766 769 771 773 775 778 780 782 785 788 790 792 794 796 798 800 802 805 807 810 812 814 816 818 820 822 825 827 828 830 831 834 836 837 839 841 842 844 845 847 848 850 851 853 855 856 857 858 859 860 862 863 864 865 866 867 869 870 871 873 874 874 874 874 874 874 874 874 874 875 875 876 877 878 879
747 748 750 751 752 755 757 758 758 760 762 764 765 768 771 773 775 778 780 782 784 787 789 791 793 795 797 800 803 806 807 810 812 814 817 819 821 823 825 827 829 831 832 834 836 837 839 840 842 844 845 847 848 850 852 853 854 856 857 858 859 861 862 863 864 865 867 869 871 872 873 874 875 875 875 875 875 875 875 875 875 876 876 877 878
744 745 747 749 750 752 753 753 755 757 759 760 761 764 766 769 771 773 776 778 780 783 785 787 790 793 796 798 801 802 804 807 810 812 814 816 818 820 822 824 826 828 829 831 833 834 836 838 839 841 842 844 845 847 848 850 851 852 854 855 857 858 860 861 862 864 865 867 869 871 873 874 873 874 875 876 876 876 875 875 876 876 876 877 877
742 743 745 748 749 749 749 751 753 754 754 755 757 759 761 763 766 769 772 775 777 779 781 785 789 791 794 797 800 801 803 805 807 808 810 812 814 816 818 821 823 824 826 828 830 831 833 835 836 838 839 841 842 844 845 846 848 850 851 853 854 855 857 859 860 862 863 864 866 868 871 871 871 872 874 876 876 876 876 876 876 876 876 876 877
746 745 746 747 746 747 748 749 750 751 750 751 753 755 757 760 762 765 768 770 772 775 778 781 784 786 789 792 794 797 799 799 800 802 804 806 808 810 814 816 819 821 823 824 826 828 830 832 833 835 836 838 839 840 842 844 845 847 848 850 851 853 855 856 857 859 861 862 863 864 865 865 867 870 872 874 876 877 876 876 876 876 876 877 876
753 751 750 750 748 747 746 746 747 746 746 748 751 754 756 758 760 762 764 766 768 771 774 776 778 781 783 784 786 788 790 791 793 796 798 800 803 806 809 812 814 817 819 821 823 824 826 828 830 831 833 834 836 837 839 840 842 844 846 847 849 850 852 853 854 856 858 859 861 861 862 863 865 867 869 871 874 876 876 876 876 876 876 876 876
758 754 752 752 751 750 747 746 745 744 746 749 752 753 753 755 757 759 761 763 765 768 770 772 774 775 777 779 781 782 783 785 789 792 794 797 799 802 805 807 810 812 814 816 818 821 823 824 826 828 829 831 832 834 835 837 839 841 843 844 846 847 848 849 851 852 854 855 858 859 861 862 863 864 865 866 868 872 875 875 875 876 876 876 876
765 760 757 754 752 751 749 748 747 747 748 749 749 750 752 754 756 758 759 761 763 765 767 768 770 771 773 775 777 778 781 783 786 789 791 793 795 798 800 803 805 808 810 812 814 816 818 820 823 824 826 827 829 830 832 834 836 838 839 841 842 844 845 846 848 849 850 852 854 856 858 860 861 862 863 864 865 868 871 873 874 874 875 875 875
770 766 763 759 756 753 750 749 749 749 750 749 749 750 751 752 754 755 756 758 761 763 764 765 767 769 770 771 773 776 779 782 785 786 788 790 792 794 796 798 801 803 805 807 809 812 814 816 818 820 821 823 825 827 829 830 832 834 836 837 839 841 842 843 845 846 848 849 850 852 854 856 859 860 861 862 863 865 867 870 871 871 873 873 874
774 770 766 763 760 755 752 751 750 750 751 751 751 751 751 752 753 753 754 756 758 760 762 763 765 766 767 769 770 772 776 778 780 782 784 786 788 789 792 794 796 798 801 803 805 807 809 811 813 815 817 819 821 823 824 826 828 830 833 835 836 838 839 840 842 844 845 847 848 849 850 852 854 855 856 858 860 862 864 867 868 869 870 871 872
778 773 769 766 762 757 756 755 753 753 752 752 752 753 753 754 754 754 754 755 756 758 759 761 762 763 765 767 768 770 772 774 775 777 779 780 783 785 788 790 792 795 797 799 800 803 805 807 808 811 813 815 816 818 820 823 825 827 829 831 833 835 836 838 839 841 842 843 844 846 847 849 850 852 853 855 857 859 861 863 865 867 869 870 870
781 778 775 772 769 766 764 761 759 757 756 756 755 755 755 754 755 754 754 755 755 756 757 758 759 760 762 763 764 767 769 770 771 772 774 775 778 780 783 785 787 789 792 793 796 798 800 802 804 806 808 810 813 815 817 820 822 824 826 827 829 831 833 834 836 837 839 840 841 843 845 846 848 850 852 853 855 856 858 860 863 865 866 867 869
786 784 781 780 777 775 773 768 766 763 760 759 757 757 757 756 756 755 754 756 756 757 757 757 758 758 759 760 761 764 765 766 768 768 770 771 773 775 776 779 780 782 785 787 790 793 795 798 800 802 804 807 809 812 814 816 818 820 822 824 826 828 830 831 833 835 836 837 839 840 842 844 846 848 849 851 852 854 855 857 860 863 865 866 867
790 789 786 786 784 782 779 773 771 769 765 763 760 759 759 758 758 757 756 757 757 758 758 757 757 757 759 759 760 762 762 763 764 765 767 768 769 771 772 773 775 776 779 781 785 788 790 793 796 798 801 803 806 808 810 813 815 817 819 821 823 825 827 829 830 832 833 835 836 838 840 842 844 846 847 848 849 851 852 854 856 860 863 865 866
796 794 790 789 787 785 782 777 775 773 771 768 765 763 762 760 760 759 758 758 758 758 757 757 757 757 758 759 760 761 761 762 763 763 764 765 765 766 767 769 770 772 775 778 781 783 785 789 791 794 797 799 801 804 807 809 811 813 815 817 820 822 824 825 827 829 830 832 833 835 837 839 841 843 845 846 847 848 850 851 853 855 858 861 863
800 798 794 791 788 786 783 780 778 776 774 773 771 769 766 764 762 761 760 759 758 758 757 757 757 756 757 757 758 759 760 760 760 761 762 763 763 764 765 766 768 770 772 774 777 779 781 784 786 789 792 794 797 800 803 805 807 809 811 813 815 818 820 822 824 826 827 829 831 833 835 837 839 841 842 844 845 846 847 849 850 851 853 856 859
802 799 796 792 789 787 785 783 781 779 777 775 773 771 768 766 764 763 761 760 759 758 757 757 756 755 755 755 755 756 757 757 758 760 761 762 762 762 763 764 765 767 769 771 773 775 777 780 782 784 787 790 793 795 798 801 804 806 807 810 812 814 817 819 821 823 824 826 828 830 832 834 837 838 840 841 842 844 845 846 848 849 850 852 854
801 798 795 792 790 789 787 785 782 780 778 776 774 771 769 767 766 765 763 762 760 758 757 756 755 754 753 753 753 753 754 755 756 757 758 759 759 759 761 761 762 764 766 768 769 771 773 776 778 780 782 785 788 791 794 797 799 802 804 806 809 811 813 815 817 819 821 823 825 828 830 832 834 836 837 839 840 841 842 844 845 846 847 849 850
799 797 796 793 793 793 791 789 786 784 782 780 778 775 772 771 769 768 766 764 762 760 758 756 754 753 752 751 751 751 751 752 752 754 754 755 756 757 758 759 760 762 763 764 766 767 769 771 774 776 778 781 784 787 790 793 795 798 800 803 805 807 810 811 814 816 818 820 822 824 827 829 831 833 835 836 838 839 840 841 843 844 845 846 848
801 800 799 796 797 795 793 792 789 787 785 782 781 779 777 775 772 770 768 766 764 760 758 755 753 752 751 750 750 749 749 749 749 750 750 751 752 753 754 756 757 758 759 761 762 763 765 767 769 772 774 776 779 782 786 788 791 794 796 799 801 803 806 808 810 812 814 817 819 821 824 826 828 830 832 834 835 837 838 839 840 841 842 844 845
805 803 801 799 798 797 795 793 790 787 785 783 783 781 779 777 774 773 770 767 764 760 757 755 753 752 751 750 749 748 747 747 746 747 747 747 748 749 751 752 753 754 755 757 758 759 762 764 765 767 769 772 775 778 781 784 787 789 792 795 797 799 802 804 806 808 810 813 816 818 821 823 825 827 829 831 832 834 836 837 838 838 840 841 842
806 804 802 800 799 797 795 793 790 788 786 784 784 782 781 779 776 774 770 767 764 761 758 755 753 752 751 750 749 747 745 744 744 744 744 744 745 746 747 748 749 750 752 753 754 756 758 760 762 763 765 768 770 773 777 779 782 785 787 790 793 795 797 800 802 804 807 810 812 815 818 820 822 824 826 828 830 831 833 834 835 836 837 839 840
807 804 802 800 799 797 794 791 789 788 786 784 783 782 781 778 776 772 769 766 763 760 757 755 753 752 750 749 747 744 743 742 742 742 741 741 742 743 743 744 745 747 748 749 751 752 754 756 758 760 762 764 767 769 772 775 778 781 783 786 788 791 793 796 798 800 803 806 808 811 814 817 819 821 823 825 827 829 830 832 833 834 835 836 837
806 803 802 800 798 796 794 792 791 789 787 784 782 781 779 777 775 772 769 766 763 760 757 754 752 750 749 747 744 742 741 740 740 740 739 739 740 740 741 741 742 743 744 746 747 749 750 752 753 755 758 760 763 765 768 771 774 777 780 782 785 787 790 792 795 797 799 802 804 807 810 813 816 818 820 822 824 826 828 829 831 832 833 834 835
806 804 801 799 798 796 794 792 791 789 787 784 783 781 779 778 776 774 771 767 764 761 758 756 753 750 747 745 742 740 739 739 738 738 738 738 738 738 738 739 739 740 741 742 744 745 747 748 750 752 754 757 759 762 764 767 770 773 776 779 782 784 786 789 792 794 796 799 801 804 807 810 812 814 816 818 820 823 825 827 828 829 830 831 832
806 804 801 799 797 795 793 791 789 788 786 784 782 781 779 777 775 774 773 769 766 763 759 756 753 749 746 743 741 739 738 738 737 736 736 736 736 736 736 736 737 738 738 739 741 742 744 746 747 749 752 754 756 759 762 765 767 770 773 776 778 781 783 786 789 791 793 796 798 801 804 806 808 811 813 815 817 819 822 824 826 827 828 829 830
805 803 801 800 797 795 793 791 789 787 785 783 781 779 777 776 774 772 770 768 765 761 757 754 750 747 744 742 740 739 737 737 735 735 734 734 734 734 734 734 735 735 736 737 738 740 742 743 745 747 749 751 754 756 759 762 765 768 770 773 775 777 780 784 786 789 791 793 795 798 800 803 805 808 810 812 814 816 819 821 823 824 825 826 827
804 803 801 799 797 795 793 792 790 788 784 782 779 776 774 772 770 769 766 764 761 757 753 750 747 745 743 741 739 737 736 735 734 733 732 732 731 732 732 732 733 733 734 735 736 738 739 741 743 745 747 749 752 754 756 759 762 765 767 770 772 775 778 781 784 786 788 790 793 795 797 800 803 805 807 809 811 813 815 818 820 821 822 823 825
805 804 802 799 797 795 793 792 791 788 785 782 778 776 774 772 769 767 764 762 760 756 752 748 745 743 741 739 737 735 733 732 731 730 730 729 729 729 730 730 730 731 732 733 734 736 737 739 740 742 745 747 749 751 754 757 760 762 765 767 770 772 775 778 780 782 785 787 790 792 795 797 800 803 805 807 809 811 813 815 817 818 819 820 822
808 806 803 799 796 794 793 792 790 788 786 783 779 776 774 771 769 767 764 762 759 755 751 748 744 741 739 737 734 732 730 728 727 727 727 727 727 727 727 728 728 729 730 731 732 733 735 736 738 740 742 744 747 749 752 755 758 760 763 765 767 770 773 775 777 779 781 784 787 789 792 794 797 800 802 804 806 808 810 812 814 815 816 817 819
809 806 803 799 796 796 794 792 790 788 785 783 780 777 773 771 768 765 763 760 758 754 750 746 743 739 737 734 732 729 727 725 724 724 723 723 724 724 725 725 726 727 728 729 730 731 732 734 736 738 740 742 745 748 751 754 756 759 761 763 766 768 770 772 774 776 778 781 784 786 789 791 794 797 799 801 803 805 807 809 811 812 813 814 816
808 805 801 798 797 797 795 792 790 788 785 783 780 777 773 771 768 765 761 758 755 752 748 743 740 737 734 732 729 726 724 722 721 720 720 720 721 721 722 722 723 724 725 726 727 728 730 732 734 736 738 741 743 746 749 752 755 757 759 762 764 766 767 769 771 773 776 778 781 783 786 788 791 794 796 798 800 802 804 806 808 809 810 811 813
806 803 800 799 798 796 794 792 790 787 784 782 780 777 773 770 767 764 760 756 753 749 746 742 737 734 732 729 726 723 721 719 718 717 717 718 718 718 719 720 721 722 723 724 725 726 727 729 731 734 736 739 741 744 747 750 753 756 758 759 761 763 765 767 769 771 773 776 778 780 783 786 788 791 793 795 797 799 801 803 804 805 806 807 809
803 801 799 798 796 794 792 790 788 785 783 780 778 775 771 767 765 762 758 755 751 747 743 740 736 732 730 726 723 720 718 716 715 715 715 715 715 716 717 718 719 720 720 722 723 724 725 727 729 732 734 736 739 742 746 748 751 754 756 757 758 760 762 764 766 769 771 773 776 778 780 783 786 788 790 792 794 796 798 799 800 801 802 803 804
801 799 796 795 794 792 790 787 785 783 781 778 776 773 769 765 763 760 756 753 750 745 741 738 734 731 728 725 721 718 715 714 713 712 712 712 712 713 714 716 717 718 719 720 721 722 723 725 727 729 732 734 737 740 744 746 749 751 754 754 755 757 759 761 763 766 769 771 773 776 778 780 783 785 787 789 791 793 794 795 796 797 798 799 800
798 795 793 791 790 788 786 784 782 780 778 776 773 770 767 763 761 758 755 751 748 744 740 737 733 729 726 722 719 716 713 711 710 710 709 709 710 711 712 713 715 716 717 718 719 720 721 723 725 727 730 732 736 739 742 744 746 749 751 752 752 753 756 758 760 763 766 768 771 773 775 778 779 782 784 786 788 789 790 791 792 793 794 795 796
795 792 789 787 785 784 783 780 778 776 775 773 770 767 765 761 759 757 754 750 747 743 739 736 731 727 724 721 717 715 712 709 708 707 707 707 708 708 710 711 713 714 715 716 717 719 720 721 723 725 728 731 734 737 740 742 744 746 748 749 749 751 753 755 757 760 762 765 768 770 772 774 776 779 781 783 785 786 786 787 788 789 790 790 792
793 790 786 783 782 780 779 777 775 773 772 770 767 765 763 760 757 755 752 749 746 742 739 735 730 726 722 719 716 713 710 708 706 705 705 705 706 707 708 709 711 713 714 715 716 717 718 720 722 724 727 729 732 735 737 740 742 744 746 747 747 749 751 753 756 758 760 763 765 767 769 771 773 775 777 779 781 783 783 783 784 785 785 786 788
788 786 783 780 779 777 775 774 773 770 769 767 764 762 760 757 755 753 750 747 744 741 738 734 729 725 720 717 714 711 708 706 705 704 704 704 705 706 707 708 710 711 713 714 716 716 717 719 721 723 725 728 730 733 735 738 740 742 743 745 745 747 749 751 754 756 758 761 763 764 766 768 770 772 774 775 777 778 779 780 780 781 781 782 784
783 781 780 777 775 774 772 771 769 768 766 764 761 759 757 754 753 750 748 745 742 738 735 731 727 723 719 716 713 709 707 705 704 703 703 703 704 705 706 707 708 710 711 713 715 716 717 719 720 722 724 726 728 731 733 735 738 740 741 743 743 745 747 749 752 754 756 758 760 761 763 765 767 769 770 772 773 774 775 775 775 776 776 779 781
777 776 775 773 771 769 768 767 767 765 763 761 759 756 753 751 749 747 745 743 740 736 733 729 725 721 718 715 712 709 707 705 704 703 703 703 704 704 705 707 708 709 710 712 714 715 717 718 720 721 723 725 727 729 731 733 735 737 739 741 742 743 745 747 749 751 753 755 757 758 760 761 763 765 767 768 769 770 771 771 771 772 773 775 776
772 772 771 770 768 765 764 763 763 762 760 758 755 752 750 748 746 744 742 740 737 734 731 727 724 720 717 714 711 708 707 705 704 704 703 703 704 704 705 707 708 709 710 712 713 715 716 718 719 720 722 724 725 727 729 731 733 735 737 739 740 741 743 745 746 748 750 752 754 756 757 758 760 761 763 764 765 766 767 767 768 769 770 771 772
769 768 768 767 764 762 761 760 759 758 757 755 752 749 747 745 743 741 739 736 733 731 728 725 722 719 716 713 710 708 707 705 705 704 704 704 704 705 706 707 708 709 710 711 713 714 715 717 718 719 721 722 724 726 727 729 731 733 735 737 738 740 741 742 743 745 747 749 751 752 753 755 756 758 759 760 761 762 763 763 764 765 766 768 768
768 766 764 763 761 759 758 756 756 755 753 751 750 747 744 742 740 739 737 734 731 728 725 722 720 717 715 712 710 708 707 706 705 705 704 704 704 705 706 707 708 709 710 711 712 713 714 716 717 718 720 721 722 724 725 727 729 730 732 734 736 737 739 740 741 742 743 745 747 748 750 751 753 754 755 757 758 758 759 760 761 762 762 763 764
766 763 761 759 757 756 755 754 753 752 750 748 747 744 742 739 737 736 734 732 730 727 724 721 718 716 714 711 710 708 707 706 706 705 704 704 705 705 706 706 707 709 709 710 711 712 713 715 716 717 718 719 721 722 723 725 726 728 729 731 733 734 736 737 738 739 740 742 743 745 747 748 749 751 752 753 754 754 755 757 757 758 758 759 760
763 761 758 756 754 753 752 751 750 748 746 745 743 741 739 737 735 734 731 729 727 725 722 719 717 715 713 711 709 708 707 706 706 705 705 705 705 705 706 706 707 708 708 709 710 711 712 713 714 715 716 718 719 720 721 723 724 724 726 727 729 731 732 733 734 735 737 738 740 742 743 745 746 747 748 749 750 751 751 752 753 754 755 756 757
761 760 757 754 753 751 750 748 746 744 743 741 739 738 736 734 733 731 729 727 725 722 720 717 715 713 712 711 709 708 707 707 706 706 706 705 705 705 705 706 706 707 707 708 709 710 711 712 713 714 715 716 717 718 718 719 720 722 723 724 726 727 728 729 730 732 734 735 737 739 740 741 743 744 744 745 746 747 748 749 750 751 752 753 754
760 758 755 753 751 749 747 745 743 741 740 738 736 734 733 732 730 728 727 725 722 720 718 716 714 712 711 710 709 708 707 707 706 706 706 705 705 705 705 705 706 706 707 708 708 709 710 711 711 712 713 715 715 715 716 717 718 719 720 721 722 723 724 725 727 729 730 732 733 735 736 738 739 740 741 742 743 744 745 745 746 748 749 750 751
759 756 754 752 750 747 745 743 740 738 737 734 733 732 730 729 728 726 725 723 720 718 716 714 712 711 710 709 708 707 707 706 706 705 705 705 705 705 705 705 705 706 706 707 708 708 709 709 710 711 711 712 712 713 714 715 716 717 717 718 719 720 721 723 724 726 727 728 729 731 732 733 735 736 737 738 739 740 741 742 743 744 745 746 747
757 754 752 750 748 746 743 740 737 736 734 732 731 730 728 727 726 724 722 721 719 717 715 713 712 711 709 709 708 707 706 706 705 705 705 704 704 704 704 705 705 705 706 706 707 707 708 708 708 709 709 710 710 711 712 713 713 714 715 716 717 718 719 720 721 723 724 725 726 728 729 730 731 733 734 735 735 737 738 738 739 740 741 742 743